Location: ???????
(55.3754°N, 39.3545°E)
Time: 11:57:12
(UTC+00:00)

ATLAS 5 CENTAUR R/B - Pass Details

Date: 14 April 2026
Orbit: 361 x 1064 km, 63.3° (Epoch: 10 May)

Event Time Altitude Azimuth Distance (km) Brightness Sun altitude
Rises 19:50:26 0° 306° (NW) 2,431 5.6 -22.2°
Reaches altitude 10° 19:52:28 10° 315° (NW) 1,640 4.7 -22.3°
Maximum altitude 19:55:53 38° 25° (NNE) 833 2.5 -22.5°
Enters shadow 19:57:30 27° 72° (ENE) 1,115 2.8 -22.6°
